This is the latest recevied weather packets stored in our database for station/object W3BRL. If no packets are shown the sender has not sent any weather packets the latest 10 day(s).
| Time | Temp. | Humidity | Pressure | Rain* | Wind** | Luminosity | Snow |
|---|---|---|---|---|---|---|---|
| 1777956119 | 17.22° C | 58% | 1005.8 hPa | 0 mm | - | 0 W/m² | - |
| 1777955816 | 17.22° C | 58% | 1005.6 hPa | 0 mm | - | 0 W/m² | - |
| 1777955512 | 17.22° C | 58% | 1005.8 hPa | 0 mm | - | 0 W/m² | - |
| 1777955208 | 17.22° C | 57% | 1005.9 hPa | 0 mm | - | 0 W/m² | - |
| 1777954906 | 17.22° C | 57% | 1005.9 hPa | 0 mm | - | 0 W/m² | - |
| 1777954602 | 17.22° C | 57% | 1005.7 hPa | 0 mm | - | 0 W/m² | - |
| 1777954300 | 17.22° C | 57% | 1005.9 hPa | 0 mm | - | 0 W/m² | - |
| 1777953996 | 17.22° C | 57% | 1005.9 hPa | 0 mm | - | 0 W/m² | - |
| 1777953390 | 17.78° C | 56% | 1005.7 hPa | 0 mm | - | 0 W/m² | - |
| 1777943699 | 18.89° C | 51% | 1005.8 hPa | 0 mm | - | 0 W/m² | - |
| 1777943394 | 18.89° C | 51% | 1005.7 hPa | 0 mm | - | 0 W/m² | - |
| 1777941271 | 19.44° C | 50% | 1005.3 hPa | 0 mm | - | 0 W/m² | - |
| 1777940967 | 19.44° C | 50% | 1005.1 hPa | 0 mm | - | 0 W/m² | - |
| 1777940362 | 19.44° C | 50% | 1005 hPa | 0 mm | - | 3 W/m² | - |
| 1777940059 | 20° C | 50% | 1004.9 hPa | 0 mm | - | 5 W/m² | - |
| 1777939756 | 20° C | 50% | 1005 hPa | 0 mm | - | 7 W/m² | - |
| 1777939454 | 20° C | 49% | 1005 hPa | 0 mm | - | 10 W/m² | - |
| 1777939150 | 20° C | 50% | 1005.1 hPa | 0 mm | - | 15 W/m² | - |
| 1777938848 | 20° C | 49% | 1005.3 hPa | 0 mm | - | 24 W/m² | - |
| 1777934604 | 21.67° C | 43% | 1005.1 hPa | 0 mm | - | 66 W/m² | - |
| 1777934300 | 21.67° C | 43% | 1005.2 hPa | 0 mm | - | 132 W/m² | - |
| 1777933996 | 21.11° C | 43% | 1005.2 hPa | 0 mm | - | 67 W/m² | - |
| 1777933088 | 21.67° C | 43% | 1005.1 hPa | 0 mm | - | 127 W/m² | - |
| 1777932481 | 21.67° C | 42% | 1005.2 hPa | 0 mm | - | 134 W/m² | - |
| 1777931875 | 21.67° C | 42% | 1005.2 hPa | 0 mm | - | 312 W/m² | - |
* Rain latest hour (hover to see other rain measurements)
** Current wind speed in m/s (hover to see current wind gust speed)